QPF
0.01 0.02 0.03 0.04 0.07 0.06 0.07 0.11 0.09 0.07 0.05 0.06 0.04 0.04 0.05 0.04 0.05 0.09 0.15 0.16 0.10 0.06 0.09 0.10 0.05 0.03 0.04 0.05 0.04 0.04 0.03 0.02 0.02 0.02 0.02 0.01 0.01 0.01 0.02 0.02 0.01 0.02 0.02 0.02 0.02 0.02 0.02 0.02 0.01
0.01 0.02 0.04 0.06 0.06 0.04 0.07 0.12 0.09 0.04 0.02 0.03 0.03 0.02 0.03 0.03 0.04 0.10 0.15 0.16 0.10 0.07 0.06 0.07 0.05 0.03 0.05 0.04 0.04 0.04 0.04 0.03 0.03 0.03 0.03 0.02 0.02 0.02 0.03 0.02 0.02 0.02 0.02 0.02 0.02 0.01 0.02 0.02 0.01
0.01 0.03 0.04 0.04 0.06 0.06 0.07 0.13 0.10 0.04 0.02 0.03 0.02 0.02 0.02 0.05 0.07 0.14 0.13 0.11 0.11 0.07 0.06 0.07 0.06 0.04 0.03 0.03 0.02 0.03 0.04 0.05 0.04 0.04 0.04 0.02 0.02 0.02 0.02 0.03 0.02 0.02 0.02 0.02 0.01 0.01 0.01 0.01 0.01
0.02 0.03 0.03 0.04 0.07 0.09 0.08 0.10 0.05 0.03 0.02 0.02 0.01 0.03 0.03 0.04 0.08 0.11 0.10 0.11 0.09 0.06 0.06 0.06 0.05 0.03 0.02 0.02 0.03 0.02 0.02 0.04 0.05 0.04 0.05 0.04 0.03 0.02 0.02 0.02 0.02 0.02 0.02 0.02 0.01 0.01 0.01 0.01 0.01
0.02 0.03 0.03 0.05 0.06 0.10 0.09 0.07 0.03 0.03 0.02 0.01 0.01 0.03 0.06 0.07 0.09 0.09 0.09 0.08 0.07 0.06 0.07 0.06 0.03 0.03 0.03 0.02 0.03 0.01 0.01 0.01 0.05 0.05 0.04 0.04 0.03 0.01 0.01 0.02 0.01 0.01 0.01 0.01 0.01 0.01 0.01 0.01 0.00
0.03 0.02 0.03 0.04 0.04 0.08 0.09 0.06 0.02 0.02 0.02 0.01 0.01 0.03 0.07 0.08 0.07 0.09 0.07 0.04 0.03 0.03 0.05 0.07 0.05 0.02 0.02 0.03 0.03 0.00 0.00 0.00 0.03 0.09 0.06 0.03 0.02 0.01 0.00 0.01 0.01 0.01 0.01 0.00 0.01 0.01 0.01 0.00 0.00
0.04 0.02 0.04 0.05 0.05 0.07 0.09 0.04 0.02 0.01 0.02 0.01 0.01 0.02 0.07 0.07 0.06 0.06 0.03 0.02 0.01 0.01 0.01 0.03 0.02 0.01 0.02 0.01 0.01 0.00 0.00 0.00 0.02 0.08 0.08 0.03 0.01 0.00 0.00 0.00 0.00 0.00 0.00 0.00 0.00 0.00 0.00 0.00 0.00
0.02 0.02 0.04 0.04 0.05 0.06 0.05 0.03 0.03 0.01 0.02 0.01 0.00 0.01 0.04 0.06 0.06 0.07 0.03 0.02 0.01 0.01 0.01 0.01 0.01 0.01 0.00 0.00 0.00 0.00 0.00 0.00 0.01 0.03 0.04 0.02 0.01 0.00 0.00 0.00 0.00 0.00 0.00 0.00 0.00 0.00 0.00 0.00 0.01
0.01 0.03 0.05 0.04 0.03 0.04 0.03 0.05 0.05 0.02 0.02 0.02 0.01 0.01 0.02 0.03 0.04 0.04 0.03 0.02 0.03 0.03 0.01 0.00 0.01 0.00 0.00 0.00 0.00 0.00 0.00 0.00 0.00 0.00 0.01 0.02 0.01 0.00 0.00 0.00 0.00 0.00 0.00 0.00 0.00 0.00 0.00 0.00 0.01
0.01 0.03 0.04 0.02 0.03 0.03 0.04 0.04 0.04 0.02 0.02 0.02 0.02 0.01 0.02 0.04 0.04 0.03 0.03 0.02 0.02 0.03 0.02 0.01 0.01 0.00 0.00 0.00 0.00 0.00 0.00 0.00 0.00 0.00 0.00 0.00 0.00 0.00 0.00 0.00 0.00 0.00 0.00 0.00 0.00 0.00 0.00 0.00 0.00
0.00 0.02 0.03 0.01 0.02 0.02 0.03 0.04 0.02 0.02 0.03 0.03 0.02 0.02 0.03 0.04 0.03 0.03 0.03 0.02 0.02 0.03 0.03 0.02 0.01 0.00 0.00 0.00 0.00 0.00 0.00 0.00 0.00 0.00 0.00 0.00 0.00 0.00 0.00 0.00 0.00 0.00 0.00 0.01 0.00 0.00 0.00 0.00 0.00
0.01 0.01 0.01 0.02 0.02 0.01 0.02 0.03 0.03 0.03 0.02 0.01 0.01 0.01 0.01 0.02 0.02 0.02 0.03 0.03 0.03 0.04 0.02 0.02 0.01 0.01 0.00 0.00 0.00 0.00 0.00 0.00 0.00 0.00 0.00 0.00 0.00 0.00 0.00 0.00 0.00 0.00 0.00 0.00 0.01 0.01 0.00 0.00 0.00
0.01 0.01 0.01 0.02 0.02 0.01 0.02 0.02 0.03 0.03 0.02 0.02 0.01 0.01 0.01 0.01 0.02 0.02 0.02 0.02 0.03 0.03 0.03 0.01 0.00 0.00 0.00 0.00 0.00 0.00 0.00 0.00 0.00 0.00 0.00 0.00 0.00 0.00 0.00 0.00 0.00 0.00 0.00 0.00 0.01 0.01 0.00 0.01 0.01
0.00 0.00 0.01 0.01 0.01 0.01 0.03 0.03 0.02 0.02 0.02 0.02 0.01 0.01 0.02 0.02 0.02 0.02 0.02 0.02 0.02 0.01 0.02 0.02 0.01 0.00 0.00 0.00 0.00 0.00 0.00 0.00 0.00 0.00 0.00 0.00 0.00 0.00 0.00 0.00 0.00 0.00 0.00 0.00 0.00 0.00 0.00 0.00 0.01
0.01 0.01 0.02 0.02 0.02 0.02 0.02 0.04 0.04 0.03 0.03 0.03 0.02 0.02 0.02 0.02 0.01 0.01 0.01 0.02 0.02 0.01 0.01 0.01 0.01 0.00 0.00 0.00 0.00 0.00 0.00 0.00 0.00 0.00 0.00 0.00 0.00 0.00 0.00 0.00 0.00 0.00 0.00 0.00 0.00 0.00 0.00 0.00 0.00
0.02 0.02 0.02 0.02 0.02 0.02 0.02 0.05 0.05 0.04 0.03 0.03 0.03 0.02 0.02 0.01 0.01 0.01 0.01 0.02 0.02 0.01 0.01 0.01 0.01 0.00 0.00 0.00 0.00 0.00 0.00 0.00 0.00 0.00 0.00 0.00 0.00 0.00 0.00 0.00 0.00 0.00 0.00 0.00 0.00 0.00 0.00 0.00 0.01
0.03 0.03 0.02 0.03 0.01 0.01 0.01 0.03 0.04 0.04 0.03 0.03 0.02 0.02 0.01 0.01 0.01 0.01 0.01 0.01 0.02 0.01 0.01 0.00 0.01 0.00 0.01 0.01 0.00 0.00 0.00 0.00 0.00 0.00 0.00 0.00 0.00 0.00 0.00 0.00 0.00 0.00 0.00 0.00 0.00 0.00 0.00 0.00 0.01
0.03 0.03 0.03 0.02 0.01 0.01 0.00 0.01 0.02 0.04 0.03 0.03 0.03 0.02 0.01 0.01 0.01 0.01 0.00 0.01 0.01 0.01 0.01 0.00 0.01 0.01 0.01 0.01 0.01 0.00 0.00 0.01 0.00 0.00 0.00 0.00 0.00 0.00 0.00 0.00 0.00 0.00 0.00 0.00 0.00 0.00 0.00 0.00 0.00
0.01 0.02 0.02 0.01 0.01 0.01 0.00 0.01 0.01 0.03 0.04 0.05 0.04 0.03 0.01 0.01 0.01 0.02 0.01 0.01 0.01 0.02 0.02 0.01 0.01 0.01 0.01 0.01 0.01 0.01 0.01 0.01 0.00 0.00 0.00 0.00 0.00 0.00 0.00 0.00 0.00 0.00 0.00 0.00 0.00 0.00 0.00 0.00 0.00
0.01 0.03 0.03 0.01 0.01 0.01 0.01 0.01 0.02 0.04 0.03 0.04 0.03 0.04 0.02 0.02 0.01 0.02 0.01 0.01 0.01 0.02 0.03 0.01 0.00 0.00 0.01 0.00 0.01 0.01 0.01 0.01 0.00 0.00 0.00 0.00 0.00 0.00 0.00 0.00 0.00 0.00 0.00 0.00 0.00 0.00 0.00 0.00 0.00
0.02 0.03 0.04 0.02 0.02 0.02 0.02 0.03 0.03 0.06 0.03 0.03 0.04 0.04 0.03 0.01 0.01 0.01 0.01 0.01 0.01 0.02 0.02 0.01 0.01 0.01 0.01 0.01 0.01 0.01 0.00 0.00 0.00 0.00 0.00 0.00 0.00 0.00 0.00 0.00 0.00 0.00 0.00 0.00 0.00 0.00 0.00 0.00 0.00
0.02 0.02 0.01 0.01 0.01 0.02 0.02 0.03 0.03 0.06 0.05 0.02 0.03 0.03 0.03 0.02 0.01 0.01 0.01 0.01 0.01 0.01 0.02 0.01 0.01 0.01 0.01 0.01 0.01 0.00 0.00 0.00 0.00 0.00 0.00 0.00 0.00 0.00 0.00 0.00 0.00 0.00 0.00 0.00 0.00 0.00 0.00 0.00 0.00
0.01 0.01 0.01 0.01 0.02 0.02 0.01 0.01 0.02 0.03 0.03 0.01 0.01 0.01 0.02 0.02 0.01 0.00 0.00 0.01 0.01 0.01 0.02 0.02 0.02 0.02 0.02 0.02 0.01 0.00 0.00 0.01 0.00 0.00 0.00 0.00 0.00 0.00 0.00 0.00 0.00 0.00 0.00 0.00 0.00 0.00 0.00 0.00 0.00
0.00 0.02 0.01 0.02 0.02 0.02 0.01 0.02 0.02 0.02 0.01 0.01 0.01 0.01 0.01 0.02 0.01 0.01 0.00 0.00 0.01 0.01 0.02 0.02 0.03 0.03 0.03 0.02 0.01 0.00 0.00 0.00 0.00 0.00 0.00 0.00 0.00 0.00 0.00 0.00 0.00 0.00 0.00 0.00 0.00 0.00 0.00 0.00 0.00
0.01 0.03 0.02 0.02 0.02 0.01 0.00 0.01 0.01 0.01 0.01 0.00 0.01 0.01 0.01 0.01 0.01 0.01 0.00 0.00 0.01 0.01 0.02 0.02 0.02 0.02 0.02 0.02 0.02 0.01 0.00 0.00 0.00 0.00 0.00 0.00 0.00 0.00 0.00 0.00 0.00 0.00 0.00 0.00 0.00 0.00 0.00 0.00 0.00
0.01 0.02 0.02 0.02 0.02 0.02 0.01 0.01 0.01 0.00 0.00 0.00 0.00 0.01 0.02 0.02 0.01 0.01 0.01 0.01 0.01 0.01 0.03 0.02 0.02 0.01 0.01 0.02 0.02 0.03 0.01 0.01 0.01 0.01 0.00 0.00 0.00 0.00 0.00 0.00 0.00 0.00 0.00 0.00 0.00 0.00 0.00 0.00 0.00
0.01 0.01 0.01 0.01 0.02 0.03 0.02 0.02 0.01 0.01 0.01 0.00 0.01 0.01 0.01 0.02 0.01 0.01 0.01 0.01 0.01 0.01 0.02 0.02 0.02 0.01 0.01 0.02 0.02 0.02 0.01 0.01 0.01 0.02 0.02 0.01 0.01 0.00 0.00 0.00 0.00 0.00 0.00 0.00 0.00 0.00 0.00 0.00 0.00
0.01 0.01 0.02 0.02 0.02 0.03 0.03 0.02 0.01 0.00 0.00 0.00 0.01 0.01 0.01 0.01 0.01 0.01 0.02 0.02 0.01 0.01 0.02 0.02 0.01 0.01 0.01 0.01 0.02 0.01 0.01 0.01 0.02 0.03 0.06 0.04 0.02 0.01 0.00 0.00 0.00 0.00 0.00 0.00 0.00 0.00 0.00 0.00 0.00
0.01 0.01 0.01 0.01 0.02 0.03 0.03 0.03 0.02 0.01 0.01 0.00 0.00 0.00 0.01 0.01 0.01 0.01 0.01 0.01 0.01 0.02 0.02 0.01 0.01 0.01 0.01 0.01 0.01 0.01 0.01 0.01 0.02 0.02 0.03 0.03 0.01 0.01 0.00 0.00 0.00 0.00 0.00 0.00 0.00 0.00 0.00 0.00 0.00
0.01 0.01 0.01 0.01 0.02 0.03 0.02 0.02 0.01 0.02 0.01 0.01 0.01 0.01 0.00 0.00 0.00 0.01 0.02 0.01 0.02 0.02 0.01 0.01 0.01 0.01 0.01 0.01 0.01 0.01 0.01 0.02 0.02 0.02 0.01 0.01 0.01 0.00 0.00 0.00 0.00 0.00 0.00 0.00 0.00 0.00 0.00 0.00 0.00
MSLP
1010.81 1011.76 1012.94 1014.22 1015.48 1016.61 1017.51 1018.14 1018.49 1018.61 1018.60 1018.55 1018.54 1018.59 1018.72 1018.88 1018.99 1019.01 1018.86 1018.56 1018.13 1017.63 1017.14 1016.73 1016.46 1016.32 1016.30 1016.33 1016.37 1016.37 1016.31 1016.20 1016.07 1015.96 1015.92 1015.95 1016.04 1016.16 1016.27 1016.33 1016.31 1016.21 1016.05 1015.87 1015.69 1015.55 1015.46 1015.41 1015.38
1011.33 1012.48 1013.81 1015.18 1016.45 1017.53 1018.32 1018.81 1019.01 1019.00 1018.87 1018.72 1018.63 1018.62 1018.69 1018.80 1018.88 1018.87 1018.72 1018.44 1018.05 1017.62 1017.22 1016.90 1016.70 1016.62 1016.63 1016.68 1016.72 1016.72 1016.66 1016.55 1016.43 1016.33 1016.29 1016.31 1016.39 1016.48 1016.55 1016.57 1016.52 1016.40 1016.23 1016.05 1015.88 1015.76 1015.67 1015.63 1015.60
1012.02 1013.33 1014.74 1016.12 1017.34 1018.31 1018.96 1019.29 1019.35 1019.22 1019.00 1018.79 1018.65 1018.60 1018.64 1018.71 1018.75 1018.71 1018.55 1018.29 1017.96 1017.60 1017.28 1017.05 1016.93 1016.91 1016.95 1017.02 1017.06 1017.05 1016.98 1016.87 1016.75 1016.65 1016.60 1016.60 1016.65 1016.70 1016.74 1016.72 1016.65 1016.52 1016.37 1016.21 1016.08 1015.98 1015.93 1015.90 1015.88
1012.83 1014.22 1015.64 1016.96 1018.06 1018.87 1019.35 1019.54 1019.48 1019.27 1019.01 1018.77 1018.62 1018.57 1018.58 1018.62 1018.63 1018.56 1018.40 1018.16 1017.87 1017.58 1017.35 1017.20 1017.14 1017.17 1017.24 1017.31 1017.35 1017.33 1017.25 1017.13 1017.00 1016.90 1016.83 1016.82 1016.83 1016.85 1016.85 1016.81 1016.73 1016.62 1016.49 1016.38 1016.29 1016.24 1016.23 1016.23 1016.23
1013.65 1015.04 1016.39 1017.58 1018.52 1019.15 1019.48 1019.53 1019.40 1019.15 1018.90 1018.70 1018.58 1018.54 1018.56 1018.58 1018.56 1018.47 1018.30 1018.07 1017.82 1017.59 1017.42 1017.34 1017.35 1017.41 1017.49 1017.56 1017.58 1017.53 1017.44 1017.31 1017.18 1017.07 1017.01 1016.98 1016.97 1016.97 1016.94 1016.89 1016.81 1016.72 1016.63 1016.56 1016.53 1016.53 1016.56 1016.59 1016.62
1014.38 1015.69 1016.91 1017.92 1018.67 1019.13 1019.32 1019.29 1019.13 1018.91 1018.72 1018.59 1018.54 1018.55 1018.59 1018.60 1018.55 1018.43 1018.25 1018.03 1017.80 1017.62 1017.51 1017.48 1017.53 1017.61 1017.69 1017.74 1017.73 1017.66 1017.55 1017.42 1017.29 1017.20 1017.14 1017.11 1017.11 1017.09 1017.06 1017.01 1016.93 1016.85 1016.79 1016.76 1016.77 1016.82 1016.88 1016.95 1016.99
1014.92 1016.11 1017.14 1017.96 1018.52 1018.83 1018.92 1018.86 1018.73 1018.60 1018.51 1018.50 1018.54 1018.61 1018.67 1018.68 1018.61 1018.46 1018.25 1018.03 1017.83 1017.68 1017.62 1017.63 1017.69 1017.77 1017.83 1017.86 1017.82 1017.73 1017.60 1017.47 1017.37 1017.30 1017.27 1017.27 1017.27 1017.27 1017.23 1017.17 1017.10 1017.03 1016.98 1016.96 1016.99 1017.07 1017.15 1017.24 1017.30
1015.28 1016.30 1017.15 1017.77 1018.16 1018.35 1018.40 1018.36 1018.30 1018.29 1018.34 1018.45 1018.59 1018.72 1018.80 1018.80 1018.70 1018.52 1018.29 1018.06 1017.87 1017.76 1017.72 1017.76 1017.83 1017.90 1017.94 1017.93 1017.86 1017.75 1017.62 1017.50 1017.42 1017.39 1017.41 1017.44 1017.47 1017.48 1017.45 1017.39 1017.30 1017.21 1017.15 1017.14 1017.17 1017.25 1017.35 1017.45 1017.52
1015.50 1016.35 1017.01 1017.46 1017.72 1017.84 1017.87 1017.89 1017.94 1018.06 1018.25 1018.48 1018.70 1018.88 1018.96 1018.93 1018.79 1018.58 1018.33 1018.09 1017.92 1017.83 1017.82 1017.87 1017.95 1018.01 1018.02 1017.98 1017.88 1017.75 1017.62 1017.52 1017.48 1017.49 1017.55 1017.63 1017.70 1017.72 1017.69 1017.62 1017.51 1017.39 1017.31 1017.27 1017.30 1017.37 1017.47 1017.58 1017.68
1015.67 1016.37 1016.87 1017.19 1017.36 1017.44 1017.49 1017.58 1017.73 1017.97 1018.27 1018.59 1018.86 1019.05 1019.12 1019.05 1018.87 1018.61 1018.34 1018.10 1017.95 1017.88 1017.90 1017.97 1018.05 1018.10 1018.09 1018.02 1017.89 1017.75 1017.62 1017.54 1017.53 1017.59 1017.70 1017.81 1017.91 1017.95 1017.92 1017.83 1017.69 1017.55 1017.44 1017.38 1017.39 1017.45 1017.57 1017.70 1017.82
1015.91 1016.49 1016.87 1017.09 1017.20 1017.27 1017.35 1017.50 1017.74 1018.06 1018.42 1018.77 1019.05 1019.22 1019.24 1019.12 1018.88 1018.59 1018.30 1018.07 1017.93 1017.89 1017.94 1018.03 1018.12 1018.17 1018.15 1018.07 1017.93 1017.77 1017.64 1017.58 1017.59 1017.68 1017.81 1017.96 1018.07 1018.12 1018.10 1017.99 1017.84 1017.68 1017.55 1017.48 1017.48 1017.56 1017.69 1017.85 1018.00
1016.31 1016.80 1017.09 1017.25 1017.33 1017.39 1017.49 1017.68 1017.96 1018.30 1018.67 1019.01 1019.25 1019.35 1019.30 1019.11 1018.83 1018.51 1018.21 1017.99 1017.87 1017.86 1017.94 1018.06 1018.17 1018.23 1018.21 1018.12 1017.98 1017.83 1017.70 1017.64 1017.66 1017.75 1017.90 1018.06 1018.18 1018.24 1018.22 1018.12 1017.97 1017.81 1017.68 1017.62 1017.63 1017.73 1017.90 1018.09 1018.29
1016.90 1017.33 1017.57 1017.68 1017.74 1017.79 1017.90 1018.09 1018.35 1018.67 1018.99 1019.25 1019.41 1019.43 1019.30 1019.05 1018.71 1018.37 1018.07 1017.86 1017.77 1017.79 1017.90 1018.05 1018.19 1018.27 1018.27 1018.20 1018.07 1017.92 1017.80 1017.73 1017.75 1017.84 1017.97 1018.12 1018.24 1018.31 1018.29 1018.21 1018.09 1017.96 1017.86 1017.83 1017.88 1018.02 1018.23 1018.47 1018.71
1017.65 1018.03 1018.24 1018.33 1018.36 1018.40 1018.48 1018.63 1018.84 1019.08 1019.30 1019.46 1019.51 1019.43 1019.22 1018.91 1018.55 1018.20 1017.91 1017.72 1017.65 1017.69 1017.83 1018.00 1018.17 1018.28 1018.32 1018.28 1018.19 1018.06 1017.95 1017.89 1017.89 1017.95 1018.06 1018.19 1018.30 1018.36 1018.37 1018.31 1018.23 1018.15 1018.11 1018.13 1018.24 1018.43 1018.68 1018.97 1019.24
1018.45 1018.79 1018.97 1019.04 1019.06 1019.07 1019.12 1019.20 1019.33 1019.46 1019.55 1019.58 1019.52 1019.35 1019.08 1018.74 1018.37 1018.03 1017.75 1017.58 1017.52 1017.58 1017.73 1017.92 1018.11 1018.27 1018.36 1018.38 1018.34 1018.26 1018.17 1018.12 1018.10 1018.13 1018.21 1018.30 1018.39 1018.45 1018.47 1018.46 1018.43 1018.41 1018.43 1018.51 1018.67 1018.91 1019.20 1019.52 1019.82
1019.16 1019.47 1019.63 1019.68 1019.69 1019.69 1019.69 1019.70 1019.72 1019.73 1019.70 1019.61 1019.45 1019.21 1018.90 1018.56 1018.21 1017.88 1017.63 1017.47 1017.43 1017.48 1017.63 1017.82 1018.04 1018.23 1018.39 1018.48 1018.51 1018.50 1018.46 1018.42 1018.39 1018.40 1018.43 1018.48 1018.54 1018.59 1018.63 1018.66 1018.68 1018.73 1018.80 1018.94 1019.14 1019.40 1019.71 1020.05 1020.36
1019.67 1019.94 1020.09 1020.15 1020.17 1020.15 1020.12 1020.07 1019.99 1019.88 1019.73 1019.53 1019.29 1019.01 1018.70 1018.38 1018.07 1017.79 1017.57 1017.43 1017.38 1017.42 1017.54 1017.72 1017.95 1018.18 1018.40 1018.57 1018.69 1018.76 1018.79 1018.78 1018.76 1018.74 1018.74 1018.75 1018.77 1018.81 1018.85 1018.91 1018.97 1019.06 1019.19 1019.35 1019.57 1019.84 1020.15 1020.47 1020.78
1019.90 1020.14 1020.30 1020.40 1020.45 1020.45 1020.40 1020.30 1020.14 1019.92 1019.66 1019.38 1019.07 1018.77 1018.48 1018.21 1017.96 1017.75 1017.58 1017.45 1017.39 1017.40 1017.48 1017.64 1017.86 1018.12 1018.39 1018.65 1018.86 1019.03 1019.12 1019.17 1019.16 1019.13 1019.10 1019.07 1019.06 1019.07 1019.11 1019.18 1019.27 1019.38 1019.52 1019.70 1019.91 1020.15 1020.43 1020.73 1021.02
1019.84 1020.09 1020.29 1020.46 1020.57 1020.62 1020.58 1020.45 1020.21 1019.90 1019.54 1019.17 1018.82 1018.51 1018.25 1018.05 1017.88 1017.74 1017.63 1017.53 1017.46 1017.43 1017.47 1017.59 1017.79 1018.05 1018.36 1018.69 1018.99 1019.25 1019.43 1019.52 1019.55 1019.51 1019.46 1019.39 1019.35 1019.34 1019.37 1019.43 1019.52 1019.64 1019.78 1019.93 1020.11 1020.32 1020.55 1020.81 1021.07
1019.57 1019.86 1020.15 1020.42 1020.64 1020.76 1020.75 1020.59 1020.29 1019.87 1019.41 1018.95 1018.54 1018.22 1017.99 1017.86 1017.78 1017.73 1017.68 1017.63 1017.56 1017.51 1017.50 1017.57 1017.73 1017.99 1018.32 1018.69 1019.06 1019.39 1019.64 1019.79 1019.84 1019.82 1019.75 1019.66 1019.59 1019.56 1019.57 1019.62 1019.70 1019.81 1019.93 1020.05 1020.19 1020.34 1020.52 1020.73 1020.97
1019.22 1019.58 1019.99 1020.41 1020.76 1020.98 1021.00 1020.82 1020.43 1019.90 1019.31 1018.73 1018.24 1017.89 1017.68 1017.61 1017.62 1017.67 1017.70 1017.70 1017.66 1017.60 1017.56 1017.58 1017.70 1017.92 1018.25 1018.64 1019.05 1019.42 1019.72 1019.91 1020.00 1019.99 1019.91 1019.81 1019.73 1019.67 1019.67 1019.71 1019.79 1019.88 1019.98 1020.07 1020.16 1020.26 1020.38 1020.55 1020.76
1018.91 1019.39 1019.96 1020.55 1021.04 1021.35 1021.41 1021.18 1020.69 1020.01 1019.26 1018.53 1017.92 1017.50 1017.29 1017.26 1017.35 1017.50 1017.63 1017.71 1017.71 1017.67 1017.62 1017.60 1017.67 1017.86 1018.15 1018.52 1018.94 1019.33 1019.66 1019.88 1019.98 1019.99 1019.92 1019.82 1019.73 1019.68 1019.67 1019.71 1019.79 1019.88 1019.96 1020.02 1020.08 1020.13 1020.21 1020.34 1020.52
1018.75 1019.37 1020.12 1020.87 1021.51 1021.90 1021.96 1021.67 1021.05 1020.19 1019.24 1018.33 1017.57 1017.05 1016.80 1016.79 1016.95 1017.19 1017.43 1017.61 1017.69 1017.69 1017.64 1017.61 1017.64 1017.78 1018.02 1018.36 1018.75 1019.13 1019.46 1019.69 1019.80 1019.82 1019.77 1019.69 1019.61 1019.57 1019.58 1019.64 1019.73 1019.82 1019.90 1019.96 1019.99 1020.02 1020.07 1020.15 1020.31
1018.77 1019.55 1020.46 1021.37 1022.11 1022.56 1022.60 1022.22 1021.45 1020.40 1019.23 1018.11 1017.18 1016.54 1016.23 1016.21 1016.42 1016.75 1017.10 1017.38 1017.56 1017.63 1017.62 1017.59 1017.59 1017.68 1017.87 1018.16 1018.50 1018.85 1019.15 1019.38 1019.51 1019.54 1019.51 1019.45 1019.40 1019.39 1019.43 1019.52 1019.63 1019.74 1019.84 1019.91 1019.94 1019.95 1019.97 1020.03 1020.15
1018.95 1019.87 1020.92 1021.94 1022.76 1023.22 1023.22 1022.73 1021.80 1020.56 1019.18 1017.86 1016.76 1015.99 1015.60 1015.56 1015.80 1016.20 1016.65 1017.04 1017.32 1017.47 1017.51 1017.50 1017.50 1017.56 1017.70 1017.93 1018.21 1018.52 1018.79 1019.01 1019.14 1019.19 1019.19 1019.17 1019.15 1019.18 1019.26 1019.38 1019.53 1019.67 1019.79 1019.88 1019.92 1019.93 1019.94 1019.98 1020.06
1019.21 1020.23 1021.37 1022.46 1023.31 1023.75 1023.68 1023.09 1022.02 1020.61 1019.06 1017.58 1016.33 1015.45 1014.98 1014.91 1015.16 1015.61 1016.14 1016.62 1016.99 1017.22 1017.32 1017.35 1017.35 1017.39 1017.49 1017.67 1017.91 1018.17 1018.42 1018.62 1018.75 1018.83 1018.86 1018.87 1018.91 1018.98 1019.09 1019.25 1019.43 1019.61 1019.76 1019.87 1019.93 1019.95 1019.95 1019.97 1020.01
1019.45 1020.52 1021.69 1022.78 1023.60 1024.00 1023.87 1023.18 1022.01 1020.50 1018.85 1017.26 1015.93 1014.97 1014.44 1014.34 1014.59 1015.06 1015.62 1016.16 1016.60 1016.90 1017.06 1017.12 1017.14 1017.17 1017.25 1017.40 1017.59 1017.82 1018.05 1018.24 1018.39 1018.49 1018.55 1018.61 1018.68 1018.79 1018.94 1019.13 1019.34 1019.55 1019.72 1019.85 1019.93 1019.96 1019.97 1019.97 1019.99
1019.58 1020.64 1021.77 1022.81 1023.56 1023.88 1023.69 1022.95 1021.75 1020.21 1018.55 1016.95 1015.60 1014.62 1014.07 1013.94 1014.16 1014.62 1015.19 1015.74 1016.21 1016.54 1016.73 1016.83 1016.87 1016.91 1016.98 1017.10 1017.27 1017.48 1017.70 1017.89 1018.05 1018.17 1018.27 1018.37 1018.48 1018.62 1018.80 1019.01 1019.23 1019.45 1019.64 1019.79 1019.89 1019.94 1019.96 1019.96 1019.96
1019.55 1020.54 1021.57 1022.49 1023.13 1023.37 1023.13 1022.39 1021.22 1019.76 1018.18 1016.67 1015.39 1014.45 1013.92 1013.78 1013.96 1014.38 1014.90 1015.42 1015.86 1016.18 1016.39 1016.49 1016.55 1016.59 1016.66 1016.78 1016.94 1017.14 1017.34 1017.54 1017.72 1017.87 1018.00 1018.12 1018.26 1018.43 1018.63 1018.84 1019.08 1019.30 1019.50 1019.66 1019.78 1019.85 1019.88 1019.90 1019.91
1019.38 1020.23 1021.10 1021.86 1022.37 1022.52 1022.25 1021.55 1020.49 1019.19 1017.78 1016.45 1015.32 1014.49 1014.01 1013.87 1014.01 1014.35 1014.79 1015.23 1015.60 1015.88 1016.06 1016.16 1016.21 1016.25 1016.32 1016.43 1016.59 1016.77 1016.97 1017.17 1017.35 1017.52 1017.68 1017.83 1018.00 1018.18 1018.39 1018.62 1018.85 1019.07 1019.27 1019.44 1019.58 1019.67 1019.74 1019.78 1019.82
Thickness
5787 5787 5785 5772 5749 5730 5725 5734 5744 5747 5750 5757 5762 5759 5751 5745 5741 5735 5752 5761 5762 5763 5763 5764 5765 5766 5767 5767 5767 5768 5768 5768 5768 5769 5769 5769 5769 5769 5769 5769 5769 5769 5769 5770 5770 5770 5770 5770 5770
5786 5785 5774 5757 5732 5714 5719 5734 5739 5748 5755 5760 5760 5757 5751 5746 5752 5751 5754 5759 5761 5762 5762 5762 5764 5765 5765 5766 5766 5766 5766 5767 5767 5767 5767 5767 5767 5767 5767 5767 5767 5767 5768 5768 5768 5768 5768 5768 5768
5785 5781 5759 5741 5726 5717 5722 5735 5742 5752 5760 5759 5753 5752 5747 5745 5751 5752 5756 5759 5760 5759 5760 5761 5762 5763 5763 5764 5764 5764 5765 5765 5765 5765 5765 5765 5765 5765 5765 5765 5765 5766 5766 5766 5766 5766 5766 5766 5766
5777 5763 5750 5731 5723 5730 5734 5739 5747 5749 5753 5756 5751 5743 5746 5753 5755 5756 5758 5758 5757 5757 5758 5759 5760 5761 5761 5762 5762 5763 5764 5764 5764 5764 5763 5763 5763 5763 5763 5764 5764 5764 5764 5764 5764 5764 5764 5764 5764
5769 5749 5731 5719 5724 5732 5739 5745 5749 5745 5744 5747 5747 5736 5738 5751 5757 5757 5757 5756 5755 5755 5756 5757 5759 5759 5760 5760 5760 5761 5762 5762 5762 5762 5762 5762 5762 5762 5762 5762 5762 5762 5763 5763 5762 5762 5762 5762 5762
5752 5739 5717 5710 5721 5731 5738 5745 5746 5741 5739 5742 5741 5734 5734 5748 5751 5753 5755 5755 5755 5754 5754 5756 5757 5758 5758 5758 5759 5760 5760 5760 5760 5760 5760 5760 5760 5760 5760 5760 5761 5761 5761 5761 5760 5760 5760 5759 5759
5744 5729 5717 5717 5718 5724 5735 5744 5741 5737 5735 5739 5742 5730 5733 5742 5749 5752 5753 5753 5753 5753 5753 5754 5755 5755 5756 5757 5757 5758 5758 5759 5758 5758 5758 5758 5758 5758 5758 5759 5759 5759 5759 5759 5758 5758 5757 5757 5756
5751 5731 5719 5717 5717 5722 5737 5743 5743 5740 5736 5745 5744 5730 5729 5740 5748 5750 5749 5750 5750 5750 5751 5751 5752 5753 5754 5755 5756 5756 5756 5757 5757 5756 5756 5756 5756 5756 5757 5757 5757 5757 5757 5756 5756 5756 5755 5754 5753
5754 5723 5712 5718 5720 5725 5738 5738 5740 5744 5740 5740 5742 5739 5741 5745 5746 5744 5743 5743 5744 5746 5748 5749 5750 5751 5752 5752 5753 5754 5754 5754 5755 5755 5755 5754 5754 5755 5755 5755 5755 5755 5754 5754 5753 5753 5752 5752 5750
5740 5716 5721 5733 5733 5732 5736 5736 5736 5733 5729 5729 5733 5737 5741 5742 5740 5738 5738 5738 5740 5742 5745 5747 5748 5749 5750 5751 5751 5752 5752 5752 5753 5753 5753 5753 5753 5753 5753 5753 5752 5753 5752 5752 5751 5750 5750 5749 5748
5739 5725 5732 5738 5741 5739 5736 5735 5738 5728 5720 5725 5728 5731 5735 5736 5735 5735 5737 5739 5741 5743 5745 5746 5747 5748 5749 5749 5749 5750 5750 5750 5751 5751 5751 5751 5751 5751 5751 5750 5750 5750 5750 5749 5748 5748 5746 5745 5744
5738 5736 5739 5738 5742 5739 5735 5733 5730 5728 5727 5734 5735 5735 5734 5732 5731 5732 5735 5738 5741 5742 5743 5745 5746 5746 5747 5747 5748 5748 5748 5748 5749 5749 5750 5750 5749 5748 5748 5747 5747 5747 5746 5746 5745 5744 5744 5742 5741
5734 5734 5739 5739 5739 5737 5735 5729 5727 5726 5732 5735 5734 5733 5730 5730 5731 5734 5736 5738 5739 5740 5741 5743 5744 5744 5745 5745 5746 5746 5746 5747 5748 5748 5748 5748 5747 5746 5745 5745 5744 5744 5744 5743 5742 5741 5740 5739 5737
5735 5734 5734 5736 5734 5733 5727 5724 5724 5722 5730 5729 5728 5727 5728 5729 5731 5732 5733 5734 5737 5738 5740 5741 5742 5743 5743 5743 5743 5744 5744 5745 5746 5746 5746 5746 5745 5744 5743 5742 5742 5742 5741 5740 5739 5738 5736 5734 5733
5738 5727 5725 5728 5730 5728 5725 5712 5716 5723 5727 5724 5724 5724 5726 5728 5730 5731 5733 5734 5735 5737 5739 5740 5740 5741 5741 5741 5741 5741 5742 5743 5743 5743 5743 5743 5743 5742 5741 5740 5739 5739 5738 5738 5736 5735 5733 5731 5729
5726 5713 5704 5719 5726 5727 5716 5698 5715 5723 5722 5718 5719 5721 5723 5726 5729 5731 5733 5734 5735 5736 5736 5738 5739 5738 5738 5738 5738 5739 5739 5740 5740 5740 5741 5741 5740 5740 5739 5738 5736 5736 5736 5735 5733 5730 5728 5726 5724
5706 5696 5698 5711 5725 5724 5713 5702 5715 5722 5720 5716 5717 5719 5721 5723 5726 5730 5732 5734 5734 5735 5735 5734 5735 5735 5735 5735 5735 5736 5736 5737 5737 5737 5738 5738 5737 5737 5736 5735 5734 5734 5733 5731 5730 5726 5724 5721 5719
5694 5696 5700 5704 5719 5718 5709 5706 5714 5720 5719 5715 5715 5716 5718 5721 5724 5729 5732 5733 5733 5734 5734 5733 5733 5733 5733 5732 5732 5732 5732 5733 5734 5734 5734 5735 5735 5734 5734 5732 5732 5731 5730 5728 5726 5723 5721 5718 5716
5710 5703 5700 5708 5723 5716 5707 5706 5711 5717 5716 5713 5712 5713 5716 5720 5726 5729 5731 5732 5731 5731 5731 5731 5730 5730 5731 5729 5727 5727 5726 5728 5730 5731 5731 5732 5732 5732 5731 5730 5729 5728 5726 5724 5723 5720 5717 5714 5714
5711 5702 5701 5710 5723 5715 5705 5706 5713 5716 5716 5717 5716 5714 5716 5719 5721 5724 5727 5729 5729 5729 5729 5729 5729 5729 5729 5728 5727 5726 5725 5725 5727 5728 5728 5729 5729 5729 5728 5727 5726 5725 5723 5721 5720 5718 5714 5711 5710
5708 5703 5703 5705 5713 5714 5705 5697 5703 5713 5718 5719 5720 5720 5720 5720 5720 5722 5725 5725 5726 5727 5727 5728 5727 5727 5727 5727 5726 5725 5723 5723 5722 5723 5724 5725 5726 5726 5726 5725 5724 5722 5721 5718 5717 5715 5712 5707 5707
5702 5717 5715 5710 5698 5688 5697 5676 5696 5706 5710 5715 5717 5718 5719 5722 5723 5723 5724 5724 5725 5727 5728 5727 5727 5726 5725 5725 5724 5722 5718 5717 5718 5720 5721 5722 5723 5723 5723 5722 5721 5720 5719 5717 5715 5713 5711 5708 5704
5713 5723 5718 5711 5698 5688 5692 5681 5689 5703 5702 5711 5718 5721 5722 5724 5724 5724 5725 5726 5727 5727 5727 5726 5725 5725 5724 5724 5723 5721 5718 5718 5718 5718 5718 5719 5720 5720 5719 5719 5718 5717 5716 5714 5713 5712 5710 5707 5704
5725 5715 5707 5698 5688 5675 5688 5682 5686 5698 5711 5718 5722 5725 5725 5726 5726 5725 5726 5726 5725 5725 5725 5724 5723 5723 5723 5722 5721 5720 5718 5717 5716 5715 5715 5715 5716 5716 5716 5716 5715 5714 5713 5712 5711 5709 5707 5705 5703
5715 5690 5671 5668 5663 5669 5693 5689 5695 5719 5729 5731 5729 5729 5729 5728 5726 5724 5723 5722 5722 5722 5721 5722 5721 5720 5720 5720 5719 5719 5718 5717 5716 5715 5714 5713 5712 5712 5713 5713 5712 5711 5710 5710 5709 5707 5704 5703 5700
5706 5694 5670 5661 5661 5672 5691 5688 5708 5734 5740 5740 5737 5734 5731 5728 5727 5726 5725 5724 5723 5722 5721 5720 5719 5718 5718 5718 5718 5718 5717 5716 5715 5715 5714 5712 5711 5711 5711 5711 5710 5709 5708 5707 5706 5704 5701 5700 5698
5703 5695 5696 5679 5676 5671 5680 5696 5717 5733 5733 5733 5732 5730 5728 5728 5728 5727 5726 5725 5724 5723 5721 5721 5719 5718 5717 5717 5717 5716 5716 5715 5714 5713 5713 5711 5711 5710 5709 5708 5707 5706 5705 5704 5702 5700 5698 5696 5694
5715 5705 5686 5676 5664 5660 5676 5686 5694 5713 5720 5726 5727 5727 5728 5729 5728 5727 5726 5725 5725 5724 5723 5721 5720 5718 5718 5717 5716 5715 5715 5714 5714 5712 5710 5709 5709 5708 5706 5705 5704 5702 5701 5700 5698 5696 5694 5693 5691
5706 5702 5692 5677 5673 5661 5661 5680 5716 5718 5723 5724 5728 5730 5730 5730 5728 5727 5726 5726 5724 5723 5721 5720 5719 5718 5716 5715 5715 5714 5714 5713 5712 5711 5709 5708 5707 5706 5704 5702 5700 5699 5697 5696 5694 5692 5691 5689 5687
5712 5705 5692 5674 5671 5670 5665 5682 5727 5726 5727 5728 5728 5731 5732 5732 5731 5728 5726 5724 5722 5720 5720 5718 5717 5716 5716 5715 5713 5712 5712 5711 5710 5709 5708 5707 5705 5704 5702 5700 5697 5696 5694 5693 5691 5689 5687 5685 5683